CW6888 Weather Reports


Display with metric or nautical units.
time (UTC)temp
F
wind
direction
speed
MPH
gust
MPH
rain 1hr
in
rain 24hr
in
rain mn
in
humidity
%
barometer
mb
20260906171837 74 47 5.0 11.0 0.00 0.00 0.00 73 1017.1
20260906170849 73 322 4.0 12.0 0.00 0.00 0.00 75 1016.9
20260906165819 73 37 7.0 13.0 0.00 0.00 0.00 76 1017.0
20260906164902 73 355 4.0 9.0 0.00 0.00 0.00 77 1017.0
20260906163827 73 5 5.0 14.0 0.00 0.00 0.00 77 1017.0
20260906162819 73 24 6.0 13.0 0.00 0.00 0.00 79 1017.0
20260906161813 73 19 4.0 11.0 0.00 0.00 0.00 78 1017.1
20260906160827 73 55 6.0 11.0 0.00 0.00 0.00 78 1017.1
20260906155814 73 37 6.0 12.0 0.00 0.00 0.00 77 1017.1
20260906154824 72 5 5.0 12.0 0.00 0.00 0.00 77 1017.0
20260906153818 72 5 4.0 12.0 0.00 0.00 0.00 78 1017.0
20260906152828 72 32 6.0 12.0 0.00 0.00 0.00 77 1017.0
20260906151842 72 70 6.0 11.0 0.00 0.00 0.00 78 1017.0
20260906150826 71 32 5.0 9.0 0.00 0.00 0.00 80 1017.0
20260906145841 71 59 5.0 9.0 0.00 0.00 0.00 80 1016.8
20260906144823 70 28 6.0 10.0 0.00 0.00 0.00 82 1016.8
20260906143817 69 63 3.0 6.0 0.00 0.00 0.00 82 1016.8
20260906142829 69 20 4.0 6.0 0.00 0.00 0.00 84 1016.7
20260906141824 68 15 2.0 10.0 0.00 0.00 0.00 84 1016.7
20260906140819 68 45 2.0 5.0 0.00 0.00 0.00 85 1016.7
20260906135824 67 63 2.0 8.0 0.00 0.00 0.00 86 1016.6
20260906134836 67 19 5.0 9.0 0.00 0.00 0.00 86 1016.7
20260906133850 67 61 5.0 10.0 0.00 0.00 0.00 87 1016.7
20260906132844 66 346 4.0 9.0 0.00 0.00 0.00 87 1016.7
20260906131817 66 62 3.0 9.0 0.00 0.00 0.00 87 1016.7
20260906130830 65 30 3.0 9.0 0.00 0.00 0.00 87 1016.7
20260906125836 65 61 4.0 11.0 0.00 0.00 0.00 88 1016.5
20260906124815 65 47 4.0 9.0 0.00 0.00 0.00 88 1016.6
20260906123813 64 83 3.0 12.0 0.00 0.00 0.00 88 1016.5
20260906122826 64 26 6.0 11.0 0.00 0.00 0.00 88 1016.3
20260906121840 64 36 5.0 10.0 0.00 0.00 0.00 88 1016.2
20260906120829 63 33 5.0 11.0 0.00 0.00 0.00 89 1016.2
20260906115819 63 33 5.0 8.0 0.00 0.00 0.00 89 1016.0
20260906114817 62 27 2.0 3.0 0.00 0.00 0.00 89 1015.9
20260906113814 62 10 1.0 3.0 0.00 0.00 0.00 89 1015.8
20260906112830 62 23 2.0 4.0 0.00 0.00 0.00 90 1015.7
20260906111827 62 35 2.0 4.0 0.00 0.00 0.00 90 1015.6
20260906110814 61 57 0.0 0.0 0.00 0.00 0.00 89 1015.7
20260906105832 61 26 0.0 2.0 0.00 0.00 0.00 89 1015.5
20260906104818 61 28 1.0 5.0 0.00 0.00 0.00 89 1015.4
20260906103831 61 15 3.0 6.0 0.00 0.00 0.00 90 1015.2
20260906102823 61 21 1.0 4.0 0.00 0.00 0.00 90 1015.1
20260906101813 61 327 0.0 0.0 0.00 0.00 0.00 89 1015.1
20260906100826 61 326 0.0 0.0 0.00 0.00 0.00 89 1015.0
20260906095832 61 326 0.0 0.0 0.00 0.00 0.00 89 1014.8
20260906094825 61 5 0.0 3.0 0.00 0.00 0.00 89 1014.7
20260906093819 61 27 1.0 4.0 0.00 0.00 0.00 88 1014.6
20260906092827 61 15 0.0 3.0 0.00 0.00 0.00 88 1014.5
20260906091840 62 5 0.0 0.0 0.00 0.00 0.00 87 1014.6
20260906090830 62 5 0.0 0.0 0.00 0.00 0.00 87 1014.4
20260906085815 62 360 0.0 0.0 0.00 0.00 0.00 87 1014.3
20260906084828 62 360 0.0 0.0 0.00 0.00 0.00 87 1014.1
20260906083822 63 360 0.0 0.0 0.00 0.00 0.00 86 1014.1
20260906082853 63 360 0.0 2.0 0.00 0.00 0.00 86 1014.1
20260906081823 63 5 0.0 2.0 0.00 0.00 0.00 86 1014.1
20260906080836 64 27 0.0 1.0 0.00 0.00 0.00 86 1014.0
20260906075820 64 27 1.0 3.0 0.00 0.00 0.00 86 1013.8
20260906074831 64 19 0.0 0.0 0.00 0.00 0.00 86 1013.8
20260906073814 64 19 0.0 0.0 0.00 0.00 0.00 86 1013.7
20260906072835 64 22 0.0 0.0 0.00 0.00 0.00 86 1013.8
20260906071820 64 26 0.0 0.0 0.00 0.00 0.00 86 1013.9
20260906070834 64 25 0.0 1.0 0.00 0.00 0.00 85 1014.0
20260906065829 64 25 0.0 2.0 0.00 0.00 0.00 85 1013.8
20260906064841 64 24 0.0 0.0 0.00 0.00 0.00 85 1013.9
20260906063826 64 24 0.0 0.0 0.00 0.00 0.00 85 1013.9
20260906062847 64 24 0.0 0.0 0.00 0.00 0.00 85 1013.9
20260906061834 64 24 0.0 0.0 0.00 0.00 0.00 85 1013.9
20260906060824 64 24 0.0 0.0 0.00 0.00 0.00 84 1014.0
20260906055850 65 24 0.0 0.0 0.00 0.00 0.00 84 1014.1
20260906054820 65 24 0.0 0.0 0.00 0.00 0.00 83 1014.2
20260906053830 65 24 0.0 0.0 0.00 0.00 0.00 83 1014.2
20260906052821 65 24 0.0 0.0 0.00 0.00 0.00 83 1014.3
20260906051832 65 24 0.0 0.0 0.00 0.00 0.00 83 1014.3
20260906050825 66 24 0.0 0.0 0.00 0.00 0.00 83 1014.4
20260906045832 65 24 0.0 2.0 0.00 0.00 0.00 83 1014.5
20260906044827 66 24 0.0 4.0 0.00 0.00 0.00 83 1014.5
20260906043838 66 19 1.0 4.0 0.00 0.00 0.00 82 1014.4
20260906042829 66 28 0.0 3.0 0.00 0.00 0.00 82 1014.5
20260906041818 66 17 1.0 3.0 0.00 0.00 0.00 82 1014.5
20260906040841 66 11 0.0 1.0 0.00 0.00 0.00 82 1014.5
20260906035834 66 9 0.0 1.0 0.00 0.00 0.00 81 1014.4
20260906034820 66 9 0.0 0.0 0.00 0.00 0.00 81 1014.6
20260906033816 67 9 0.0 1.0 0.00 0.00 0.00 81 1014.4
20260906032814 66 9 0.0 1.0 0.00 0.00 0.00 81 1014.6
20260906031849 67 9 0.0 1.0 0.00 0.00 0.00 81 1014.3
20260906030822 66 9 0.0 0.0 0.00 0.00 0.00 81 1014.3
20260906025814 66 9 0.0 0.0 0.00 0.00 0.00 82 1014.3
20260906024830 66 9 0.0 0.0 0.00 0.00 0.00 82 1014.2
20260906023830 66 9 0.0 1.0 0.00 0.00 0.00 82 1014.3
20260906022816 66 9 0.0 1.0 0.00 0.00 0.00 83 1014.2
20260906021813 66 9 0.0 1.0 0.00 0.00 0.00 84 1014.1
20260906020827 66 9 0.0 0.0 0.00 0.00 0.00 84 1014.0
20260906015818 66 9 0.0 0.0 0.00 0.00 0.00 84 1013.9
20260906014813 66 9 0.0 0.0 0.00 0.00 0.00 83 1013.8
20260906013832 67 9 0.0 0.0 0.00 0.00 0.00 82 1013.7
20260906012824 66 9 0.0 0.0 0.00 0.00 0.00 83 1013.7
20260906011819 66 9 0.0 0.0 0.00 0.00 0.00 84 1013.7
20260906010834 67 9 0.0 0.0 0.00 0.00 0.00 83 1013.5
20260906005818 68 9 0.0 0.0 0.00 0.00 0.00 81 1013.5
20260906004813 69 9 0.0 0.0 0.00 0.00 0.00 79 1013.3
20260906003855 69 9 0.0 0.0 0.00 0.00 0.00 79 1013.3
20260906002818 70 9 0.0 0.0 0.00 0.00 0.00 78 1013.2
20260906001813 70 9 0.0 0.0 0.00 0.00 0.00 76 1013.1
20260906000849 71 9 0.0 0.0 0.00 0.00 0.00 77 1013.0
20260905235822 71 9 0.0 0.0 0.00 0.00 0.00 77 1013.1
20260905234818 71 9 0.0 0.0 0.00 0.00 0.00 76 1012.9
20260905233817 72 9 0.0 0.0 0.00 0.00 0.00 75 1012.8
20260905232831 72 9 0.0 0.0 0.00 0.00 0.00 74 1012.9
20260905231825 73 9 0.0 0.0 0.00 0.00 0.00 74 1012.7
20260905230840 74 9 0.0 2.0 0.00 0.00 0.00 73 1012.6
20260905225829 74 9 0.0 3.0 0.00 0.00 0.00 73 1012.6
20260905224815 75 5 0.0 3.0 0.00 0.00 0.00 71 1012.7
20260905223831 75 14 0.0 5.0 0.00 0.00 0.00 71 1012.7
20260905222827 76 17 3.0 5.0 0.00 0.00 0.00 69 1012.6
20260905221820 76 5 3.0 8.0 0.00 0.00 0.00 69 1012.6
20260905220835 77 345 5.0 9.0 0.00 0.00 0.00 69 1012.5
20260905215841 77 53 5.0 10.0 0.00 0.00 0.00 68 1012.4
20260905214815 77 18 6.0 10.0 0.00 0.00 0.00 68 1012.3
20260905213845 76 5 6.0 11.0 0.00 0.00 0.00 68 1012.1
20260905212821 76 30 1.0 9.0 0.00 0.00 0.00 69 1012.1
20260905211816 77 20 2.0 12.0 0.00 0.00 0.00 67 1012.1
20260905210831 78 25 5.0 14.0 0.00 0.00 0.00 67 1011.9
20260905205820 77 59 7.0 11.0 0.00 0.00 0.00 66 1012.0
20260905204839 77 23 7.0 14.0 0.00 0.00 0.00 68 1012.1
20260905203829 78 41 6.0 10.0 0.00 0.00 0.00 66 1012.1
20260905202829 79 47 7.0 13.0 0.00 0.00 0.00 64 1012.0
20260905201825 78 38 6.0 12.0 0.00 0.00 0.00 66 1012.0
20260905200821 78 31 7.0 13.0 0.00 0.00 0.00 67 1012.1
20260905195813 77 34 5.0 11.0 0.00 0.00 0.00 68 1012.2
20260905194831 78 15 4.0 11.0 0.00 0.00 0.00 67 1012.2
20260905193819 79 28 6.0 10.0 0.00 0.00 0.00 68 1012.2
20260905192816 78 314 3.0 8.0 0.00 0.00 0.00 68 1012.3
20260905191828 79 5 3.0 10.0 0.00 0.00 0.00 68 1012.4
20260905190819 79 46 6.0 12.0 0.00 0.00 0.00 68 1012.4
20260905185845 77 32 4.0 7.0 0.00 0.00 0.00 71 1012.4
20260905184847 77 41 1.0 6.0 0.00 0.00 0.00 77 1012.6
20260905183840 77 69 2.0 4.0 0.00 0.00 0.00 74 1012.8
20260905182829 77 49 2.0 7.0 0.00 0.00 0.00 75 1012.8
20260905181826 77 44 4.0 10.0 0.00 0.00 0.00 75 1012.8
20260905180818 75 43 2.0 6.0 0.00 0.00 0.00 76 1012.8
20260905175825 76 360 3.0 6.0 0.00 0.00 0.00 76 1012.9
20260905174837 75 18 3.0 9.0 0.00 0.00 0.00 77 1013.0
20260905173831 75 16 2.0 8.0 0.00 0.00 0.00 77 1013.1
20260905172843 75 26 4.0 8.0 0.00 0.00 0.00 76 1013.2